Location: Lake Almanor
(40.2485°N, 121.1442°W)
Time: 02:28:34
(UTC-08:00)

STARLINK-1075 - Pass Details

Date: 03 February 2020
Orbit: 349 x 351 km, 53.0° (Epoch: 22 February)

Event Time Altitude Azimuth Distance (km) Brightness Sun altitude
Rises 17:46:53 0° 307° (NW) 2,173 7.2 -4.7°
Reaches altitude 10° 17:48:54 10° 305° (NW) 1,326 6.2 -5.1°
Maximum altitude 17:51:50 70° 222° (SW) 380 3.0 -5.6°
Drops below altitude 10° 17:54:46 10° 138° (SE) 1,317 5.3 -6.2°
Sets 17:56:46 0° 135° (SE) 2,156 6.4 -6.5°
